FALCON HEAVY R/B, 57480

Orbit data source: Space-Track

FALCON HEAVY R/B, 57480 is space debris in HEO originally from a launch on Sat, 29 Jul 2023 UTC launched from the Air Force Eastern Test Range (AFETR). Debris objects in space refer to the collection of defunct objects orbiting the Earth. Examples of debris include non-operational satellites, rocket bodies, and fragments generated from explosions, collisions, or faulty payload assembly.

Loading next visibility...
Identifier
57480, 2023-108B
Orbit
HEO
Country
Flag of USUS
Related business
Manufacturer
SpaceX
Mission
Spacecraft
Bus & Motor
F9ST2, Unknown motor
Mass
~4,000 kg wet, ~4,000 kg dry
Launch date (UTC)
2023-07-29 (3 years ago)
Launch vehicle
Unknown
Launch site
Air Force Eastern Test Range (AFETR)
Object type
Payload
Rocket body
Debris
Shape & HBR
Cyl, 6.3 m
Radar Cross Section
49.816 m², Large (>1 m²)

Expand to show TLE details & history
Last TLE update: 11 hours ago

TLE from 11 hours ago
0 FALCON HEAVY R/B
1 57480U 23108B   26248.34883025 -.00000157  00000-0  00000-0 0  9997
2 57480  11.4949  85.8856 4927147  46.5745 345.3323  1.84352586 20927
Epoch: 2026-09-05T08:22Z
TLE epoch observation values (Epoch: 2026-09-05T08:22:18.933Z)
Latitude
-0.00003°
Longitude
-24.05414°
Altitude
9,496.969 km
Speed
6.002 km/s
True Right ascension
05h 43m 56s
True Declination
0° 00' 00"
Sunlit
Object was in daylight at epoch
Visualization orbit readout
Latitude
Unknown
Longitude
Unknown
Altitude
Unknown
Speed
Unknown
Apparent Right ascension
Unknown
Apparent Declination
Unknown
Sunlit
N/A
Visualization observer readout
Local Sidereal Time
11:40:46
Azimuth
Unknown
Elevation
Unknown
Doppler factor
Unknown
Orbital elements
Apogee altitude
35,563.69 km
Perigee altitude
7,875.405 km
Semi-major axis
28,097.685 km
Eccentricity
0.49271
Inclination
11.4949°
RAAN
85.8856°
Arg. of periapsis
46.5745°
True anomaly
313.90309°
Mean anomaly
345.3323°
Eccentric anomaly
332.13972°
Mean motion
0.46083 °/min
Orbital period
781.21 mins
BSTAR
0
Loading maneuver chart data...
Computing Atmospheric mass density...
Loading historical data...
Loading historical data...
Loading historical data...
Loading historical data...
Loading historical data...
Loading historical data...
Loading historical data...
Other satellites on launch #108 in the year 2023 (2023-07-29 UTC)

Documentation

Showing up to 5 results
|